Weather History for KHKY - March, 2014

Change the Weather History Date:

Monday, March 3, 2014

  Actual Average Record
Temperature  
Mean Temperature 44 °F -  
Max Temperature 61 °F 59 °F 83 °F (1976)
Min Temperature 28 °F 37 °F 9 °F (1980)
Degree Days  
Heating Degree Days 20    
Moisture  
Dew Point 35 °F    
Average Humidity 81    
Maximum Humidity 93    
Minimum Humidity 54    
Precipitation  
Precipitation 0.27 in - - ()
Sea Level Pressure  
Sea Level Pressure 29.96 in    
Wind  
Wind Speed 11 mph (ENE)    
Max Wind Speed 21 mph    
Max Gust Speed 30 mph    
Visibility 8 miles    
Events Rain , Snow    
Averages and records for this station are not official NWS values.
T = Trace of Precipitation, MM = Missing Value Source: NWS Daily Summary

Daily Weather History Graph

Daily Weather History Graph

Search for Another Location

Airport or City:

Trip Planner

Search our weather history database for the weather conditions in past years. The results will help you decide how hot, cold, wet, or windy it might be!

Date:

Astronomy

Mar. 03, 2014 Rise Set
Actual Time 6:52 AM EST 6:22 PM EST
Civil Twilight 6:27 AM EST 6:48 PM EST
Nautical Twilight 5:57 AM EST 7:17 PM EST
Astronomical Twilight 5:28 AM EST 7:47 PM EST
Moon 8:06 AM EST (3/3) 9:16 PM EST (3/3)
Length of Visible Light 12h 20m
Length of Day
11h 29m
Waxing Crescent, 8% of the Moon is Illuminated
Mar 3
Waxing Crescent
Mar 8
First Quarter
Mar 16
Full
Mar 23
Last Quarter
Mar 30
New

Hourly Weather History & Observations

Time (EST) Temp. Windchill Dew Point Humidity Pressure Visibility Wind Dir Wind Speed Gust Speed Precip Events Conditions
12:53 AM 61.0 °F - 44.1 °F 54% 29.81 in 10.0 mi SSW 12.7 mph - N/A   Clear
1:53 AM 60.1 °F - 44.1 °F 55% 29.80 in 10.0 mi SSW 10.4 mph - N/A   Clear
2:53 AM 57.9 °F - 44.1 °F 60% 29.77 in 10.0 mi South 6.9 mph - N/A   Partly Cloudy
3:53 AM 57.0 °F - 44.1 °F 62% 29.75 in 10.0 mi SSW 6.9 mph - N/A   Mostly Cloudy
4:53 AM 57.0 °F - 43.0 °F 59% 29.74 in 10.0 mi South 10.4 mph - N/A   Overcast
5:53 AM 57.0 °F - 43.0 °F 59% 29.72 in 10.0 mi SSW 8.1 mph 18.4 mph N/A   Overcast
6:53 AM 57.0 °F - 42.1 °F 57% 29.72 in 10.0 mi South 9.2 mph 17.3 mph N/A   Overcast
7:53 AM 52.0 °F - 46.9 °F 83% 29.76 in 10.0 mi WSW 4.6 mph - 0.08 in Rain Light Rain
8:53 AM 52.0 °F - 48.0 °F 86% 29.77 in 9.0 mi Calm Calm - 0.00 in Rain Light Rain
9:53 AM 53.1 °F - 48.9 °F 86% 29.79 in 9.0 mi Calm Calm - 0.00 in   Overcast
10:19 AM 53.6 °F - 48.2 °F 82% 29.86 in 8.0 mi East 10.4 mph - N/A   Overcast
10:28 AM 51.8 °F - 46.4 °F 82% 29.86 in 8.0 mi NE 20.7 mph 26.5 mph N/A   Overcast
10:42 AM 46.4 °F 39.5 °F 42.8 °F 87% 29.87 in 10.0 mi ENE 17.3 mph 24.2 mph N/A   Overcast
10:53 AM 45.0 °F 38.2 °F 42.1 °F 90% 29.84 in 10.0 mi NE 15.0 mph 21.9 mph N/A   Overcast
11:51 AM 41.0 °F 33.1 °F 37.4 °F 87% 29.90 in 2.5 mi ENE 15.0 mph 24.2 mph 0.02 in Rain Light Rain
11:53 AM 41.0 °F 32.8 °F 37.9 °F 89% 29.88 in 2.5 mi NE 16.1 mph 24.2 mph 0.02 in Rain Light Rain
12:00 PM 41.0 °F 34.3 °F 37.4 °F 87% 29.92 in 4.0 mi NNE 11.5 mph 23.0 mph 0.00 in Rain Light Rain
12:53 PM 37.9 °F 29.2 °F 35.1 °F 89% 29.90 in 7.0 mi NE 15.0 mph 23.0 mph 0.02 in Rain Light Rain
1:53 PM 36.0 °F 28.0 °F 33.1 °F 89% 29.94 in 3.0 mi ENE 11.5 mph 21.9 mph 0.02 in Rain Light Rain
2:24 PM 35.6 °F 26.6 °F 33.8 °F 93% 29.97 in 2.5 mi ENE 13.8 mph 21.9 mph 0.04 in Rain Rain
2:33 PM 35.6 °F 26.6 °F 32.0 °F 87% 29.99 in 5.0 mi NE 13.8 mph 24.2 mph 0.04 in Rain Light Rain
2:53 PM 34.0 °F 24.2 °F 30.9 °F 89% 29.98 in 5.0 mi NE 15.0 mph 23.0 mph 0.05 in Rain Rain
3:08 PM 33.8 °F 23.2 °F 30.2 °F 87% 30.01 in 6.0 mi NE 17.3 mph 29.9 mph 0.02 in Rain Light Rain
3:22 PM 33.8 °F 23.9 °F 30.2 °F 87% 30.00 in 10.0 mi ENE 15.0 mph 25.3 mph 0.02 in Rain Light Rain
3:53 PM 33.1 °F 24.4 °F 30.0 °F 89% 29.99 in 3.0 mi East 11.5 mph 25.3 mph 0.03 in Snow Light Snow
4:41 PM 33.8 °F 28.6 °F 28.4 °F 81% 30.05 in 4.0 mi East 5.8 mph - 0.02 in Snow Light Snow
4:53 PM 33.1 °F 24.4 °F 30.0 °F 89% 30.02 in 4.0 mi ENE 11.5 mph - 0.03 in Rain Rain
5:53 PM 33.1 °F 26.1 °F 28.9 °F 85% 30.06 in 10.0 mi ENE 8.1 mph - 0.01 in   Overcast
6:04 PM 33.8 °F 26.4 °F 30.2 °F 87% 30.08 in 10.0 mi East 9.2 mph - 0.01 in   Overcast
6:38 PM 30.2 °F 21.3 °F 26.6 °F 86% 30.11 in 10.0 mi ENE 10.4 mph - 0.01 in   Overcast
6:53 PM 30.9 °F 21.7 °F 27.0 °F 85% 30.09 in 10.0 mi ENE 11.5 mph - 0.01 in   Overcast
7:31 PM 30.2 °F 22.6 °F 26.6 °F 86% 30.13 in 10.0 mi ENE 8.1 mph - 0.00 in   Overcast
7:53 PM 30.0 °F 21.1 °F 25.0 °F 82% 30.14 in 10.0 mi East 10.4 mph - 0.00 in   Overcast
8:07 PM 30.2 °F 22.6 °F 24.8 °F 80% 30.16 in 10.0 mi ENE 8.1 mph 17.3 mph N/A   Overcast
8:53 PM 28.9 °F 21.9 °F 25.0 °F 85% 30.17 in 10.0 mi ENE 6.9 mph - N/A   Overcast
9:51 PM 28.4 °F 19.1 °F 24.8 °F 86% 30.20 in 10.0 mi ENE 10.4 mph - N/A   Overcast
9:53 PM 28.9 °F 19.8 °F 24.1 °F 82% 30.18 in 10.0 mi ENE 10.4 mph - N/A   Overcast
10:53 PM 28.9 °F 21.1 °F 23.0 °F 78% 30.20 in 10.0 mi East 8.1 mph - N/A   Overcast
11:53 PM 28.0 °F 18.1 °F 23.0 °F 81% 30.20 in 10.0 mi ENE 11.5 mph - N/A   Overcast